• In Belarus
  • List of Countries
  • For 7 days
  • Water Temperature
  • Satellite Maps
  • Weather Map
  • Weather Widgets
  • user-avatar
    Login

    Hourly Weather Ondjiwa

    Today, 23 June, Friday

    Time Temperature Precipitation Wind Pressure Humidity
    00:00 +13°C° 0 mm 3 mps 670 mmHg 35%
    01:00 +12°C° 0 mm 3 mps 669 mmHg 37%
    02:00 +12°C° 0 mm 3 mps 669 mmHg 38%
    03:00 +11°C° 0 mm 3 mps 669 mmHg 39%
    04:00 +11°C° 0 mm 3 mps 669 mmHg 40%
    05:00 +11°C° 0 mm 3 mps 669 mmHg 41%
    06:00 +11°C° 0 mm 3 mps 670 mmHg 41%
    07:00 +10°C° 0 mm 3 mps 670 mmHg 42%
    08:00 +14°C° 0 mm 4 mps 671 mmHg 34%
    09:00 +20°C° 0 mm 5 mps 672 mmHg 26%
    10:00 +24°C° 0 mm 6 mps 672 mmHg 18%
    11:00 +26°C° 0 mm 6 mps 672 mmHg 16%
    12:00 +27°C° 0 mm 5 mps 671 mmHg 14%
    13:00 +28°C° 0 mm 5 mps 671 mmHg 12%
    14:00 +28°C° 0 mm 5 mps 670 mmHg 12%
    15:00 +28°C° 0 mm 5 mps 670 mmHg 12%
    16:00 +28°C° 0 mm 5 mps 669 mmHg 12%
    17:00 +23°C° 0 mm 4 mps 669 mmHg 16%
    18:00 +20°C° 0 mm 3 mps 669 mmHg 20%
    19:00 +17°C° 0 mm 3 mps 668 mmHg 24%
    20:00 +16°C° 0 mm 3 mps 669 mmHg 25%
    21:00 +16°C° 0 mm 3 mps 669 mmHg 27%
    22:00 +14°C° 0 mm 3 mps 669 mmHg 29%
    23:00 +13°C° 0 mm 3 mps 669 mmHg 30%

    Tomorrow, 24 June, Saturday

    Time Temperature Precipitation Wind Pressure Humidity
    00:00 +13°C° 0 mm 3 mps 669 mmHg 32%
    01:00 +12°C° 0 mm 3 mps 668 mmHg 33%
    02:00 +12°C° 0 mm 3 mps 668 mmHg 34%
    03:00 +11°C° 0 mm 3 mps 668 mmHg 35%
    04:00 +11°C° 0 mm 3 mps 668 mmHg 36%
    05:00 +11°C° 0 mm 3 mps 668 mmHg 37%
    06:00 +11°C° 0 mm 3 mps 669 mmHg 38%
    07:00 +11°C° 0 mm 3 mps 669 mmHg 39%
    08:00 +15°C° 0 mm 4 mps 670 mmHg 32%
    09:00 +20°C° 0 mm 5 mps 671 mmHg 25%
    10:00 +24°C° 0 mm 7 mps 672 mmHg 18%
    11:00 +26°C° 0 mm 6 mps 671 mmHg 16%
    12:00 +27°C° 0 mm 6 mps 671 mmHg 15%
    13:00 +29°C° 0 mm 5 mps 670 mmHg 14%
    14:00 +29°C° 0 mm 5 mps 670 mmHg 14%
    15:00 +28°C° 0 mm 4 mps 669 mmHg 14%
    16:00 +28°C° 0 mm 4 mps 669 mmHg 14%
    17:00 +25°C° 0 mm 3 mps 668 mmHg 18%
    18:00 +21°C° 0 mm 3 mps 668 mmHg 22%
    19:00 +18°C° 0 mm 3 mps 667 mmHg 26%
    20:00 +17°C° 0 mm 3 mps 668 mmHg 27%
    21:00 +17°C° 0 mm 3 mps 668 mmHg 28%
    22:00 +16°C° 0 mm 3 mps 668 mmHg 29%
    23:00 +14°C° 0 mm 3 mps 668 mmHg 30%

    Day after tomorrow, 25 June, Sunday

    Time Temperature Precipitation Wind Pressure Humidity
    00:00 +14°C° 0 mm 4 mps 668 mmHg 30%
    01:00 +13°C° 0 mm 4 mps 668 mmHg 31%
    02:00 +13°C° 0 mm 4 mps 667 mmHg 32%
    03:00 +12°C° 0 mm 3 mps 667 mmHg 33%
    04:00 +12°C° 0 mm 3 mps 667 mmHg 33%
    05:00 +11°C° 0 mm 3 mps 667 mmHg 35%
    06:00 +11°C° 0 mm 3 mps 667 mmHg 37%
    07:00 +10°C° 0 mm 3 mps 667 mmHg 38%
    08:00 +14°C° 0 mm 3 mps 668 mmHg 33%
    09:00 +19°C° 0 mm 4 mps 669 mmHg 28%
    10:00 +23°C° 0 mm 5 mps 670 mmHg 24%
    11:00 +26°C° 0 mm 5 mps 670 mmHg 21%
    12:00 +28°C° 0 mm 5 mps 669 mmHg 18%
    13:00 +30°C° 0 mm 5 mps 669 mmHg 16%
    14:00 +30°C° 0 mm 4 mps 668 mmHg 16%
    15:00 +30°C° 0 mm 3 mps 667 mmHg 15%
    16:00 +30°C° 0 mm 3 mps 667 mmHg 15%
    17:00 +27°C° 0 mm 3 mps 666 mmHg 20%
    18:00 +24°C° 0 mm 3 mps 666 mmHg 24%
    19:00 +20°C° 0 mm 3 mps 666 mmHg 28%
    20:00 +19°C° 0 mm 3 mps 666 mmHg 30%
    21:00 +18°C° 0 mm 3 mps 666 mmHg 31%
    22:00 +17°C° 0 mm 3 mps 667 mmHg 33%
    23:00 +17°C° 0 mm 3 mps 666 mmHg 36%

    26 June, Monday

    Time Temperature Precipitation Wind Pressure Humidity
    00:00 +16°C° 0 mm 2 mps 666 mmHg 38%
    01:00 +15°C° 0 mm 2 mps 666 mmHg 41%
    02:00 +14°C° 0 mm 2 mps 666 mmHg 43%
    03:00 +14°C° 0 mm 2 mps 665 mmHg 45%
    04:00 +12°C° 0 mm 3 mps 665 mmHg 47%
    05:00 +12°C° 0 mm 3 mps 666 mmHg 48%
    06:00 +12°C° 0 mm 3 mps 666 mmHg 50%
    07:00 +12°C° 0 mm 3 mps 667 mmHg 51%
    08:00 +17°C° 0 mm 4 mps 668 mmHg 43%
    09:00 +21°C° 0 mm 4 mps 669 mmHg 34%
    10:00 +26°C° 0 mm 5 mps 670 mmHg 26%
    11:00 +28°C° 0 mm 5 mps 669 mmHg 23%
    12:00 +30°C° 0 mm 4 mps 669 mmHg 20%
    13:00 +32°C° 0 mm 4 mps 668 mmHg 17%
    14:00 +33°C° 0 mm 4 mps 668 mmHg 16%
    15:00 +33°C° 0 mm 3 mps 667 mmHg 15%
    16:00 +33°C° 0 mm 3 mps 667 mmHg 15%
    17:00 +27°C° 0 mm 2 mps 666 mmHg 23%
    18:00 +23°C° 0 mm 2 mps 666 mmHg 31%
    19:00 +19°C° 0 mm 1 mps 665 mmHg 39%
    20:00 +19°C° 0 mm 1 mps 666 mmHg 38%
    21:00 +18°C° 0 mm 2 mps 666 mmHg 37%
    22:00 +18°C° 0 mm 2 mps 667 mmHg 36%
    23:00 +17°C° 0 mm 2 mps 667 mmHg 36%

    27 June, Tuesday

    Time Temperature Precipitation Wind Pressure Humidity
    00:00 +15°C° 0 mm 2 mps 666 mmHg 37%
    01:00 +14°C° 0 mm 1 mps 666 mmHg 38%
    02:00 +14°C° 0 mm 1 mps 666 mmHg 40%
    03:00 +13°C° 0 mm 1 mps 666 mmHg 41%
    04:00 +13°C° 0 mm 1 mps 666 mmHg 43%
    05:00 +13°C° 0 mm 1 mps 667 mmHg 44%
    06:00 +13°C° 0 mm 1 mps 667 mmHg 45%
    07:00 +14°C° 0 mm 1 mps 668 mmHg 46%
    08:00 +19°C° 0 mm 1 mps 669 mmHg 37%
    09:00 +23°C° 0 mm 1 mps 670 mmHg 29%
    10:00 +28°C° 0 mm 1 mps 671 mmHg 20%
    11:00 +29°C° 0 mm 1 mps 670 mmHg 18%
    12:00 +31°C° 0 mm 1 mps 670 mmHg 15%
    13:00 +33°C° 0 mm 1 mps 670 mmHg 13%
    14:00 +32°C° 0 mm 2 mps 669 mmHg 13%
    15:00 +32°C° 0 mm 2 mps 669 mmHg 13%
    16:00 +32°C° 0 mm 2 mps 668 mmHg 13%
    17:00 +28°C° 0 mm 2 mps 668 mmHg 22%
    18:00 +24°C° 0 mm 2 mps 667 mmHg 30%
    19:00 +20°C° 0 mm 1 mps 667 mmHg 39%
    20:00 +19°C° 0 mm 1 mps 667 mmHg 36%
    21:00 +18°C° 0 mm 1 mps 667 mmHg 33%
    22:00 +16°C° 0 mm 1 mps 667 mmHg 30%
    23:00 +16°C° 0 mm 2 mps 667 mmHg 27%

    28 June, Wednesday

    Time Temperature Precipitation Wind Pressure Humidity
    00:00 +16°C° 0 mm 2 mps 667 mmHg 23%
    01:00 +16°C° 0 mm 2 mps 667 mmHg 20%
    02:00 +15°C° 0 mm 2 mps 667 mmHg 21%
    03:00 +15°C° 0 mm 2 mps 667 mmHg 22%
    04:00 +14°C° 0 mm 2 mps 667 mmHg 23%
    05:00 +14°C° 0 mm 2 mps 667 mmHg 25%
    06:00 +13°C° 0 mm 2 mps 667 mmHg 27%
    07:00 +13°C° 0 mm 2 mps 668 mmHg 30%
    08:00 +18°C° 0 mm 1 mps 669 mmHg 24%
    09:00 +23°C° 0 mm 1 mps 670 mmHg 18%
    10:00 +27°C° 0 mm 1 mps 671 mmHg 13%
    11:00 +29°C° 0 mm 1 mps 671 mmHg 12%
    12:00 +30°C° 0 mm 1 mps 670 mmHg 11%
    13:00 +32°C° 0 mm 1 mps 670 mmHg 10%
    14:00 +32°C° 0 mm 1 mps 669 mmHg 11%
    15:00 +32°C° 0 mm 1 mps 669 mmHg 11%
    16:00 +31°C° 0 mm 2 mps 668 mmHg 11%
    17:00 +27°C° 0 mm 1 mps 668 mmHg 21%
    18:00 +23°C° 0 mm 1 mps 667 mmHg 30%
    19:00 +18°C° 0 mm 1 mps 666 mmHg 39%
    20:00 +17°C° 0 mm 2 mps 667 mmHg 34%
    21:00 +18°C° 0 mm 2 mps 668 mmHg 29%
    22:00 +18°C° 0 mm 3 mps 668 mmHg 24%
    23:00 +17°C° 0 mm 3 mps 668 mmHg 26%
    Show more